Location: Alfortville
(48.8058°N, 2.4204°E)
Time: 12:55:40
(UTC+00:00)

Cosmos 614 Rocket - Pass Details

Date: 24 October 2021
Orbit: 733 x 763 km, 74.1° (Epoch: 05 December)

Event Time Altitude Azimuth Distance (km) Brightness Sun altitude
Rises 18:38:14 0° 334° (NNW) 3,174 7.6 -19.5°
Reaches altitude 10° 18:40:36 10° 332° (NNW) 2,249 6.8 -19.9°
Maximum altitude 18:45:38 66° 251° (WSW) 809 4.3 -20.7°
Drops below altitude 10° 18:50:40 10° 170° (S) 2,247 6.3 -21.5°
Enters shadow 18:51:31 - 169° (S) 2,581 6.6 -21.7°
